Regional Weather Roundup
Issued by NWS

Home | Current Version | Previous Version | Text Only | Print | Product List | Glossary On
Versions: 1 2 3 4 5 6 7 8 9 10 11 12 13 14 15 16 17 18 19 20 21 22 23 24 25 26 27 28 29 30 31 32 33 34 35 36 37 38 39 40 41 42 43 44 45 46 47 48 49 50
439
ASUS44 KLIX 282201
RWRLA
LOUISIANA WEATHER ROUNDUP
NATIONAL WEATHER SERVICE NEW ORLEANS LA
400 PM CST SAT FEB 28 2015

NOTE: "FAIR" INDICATES FEW OR NO CLOUDS BELOW 12,000 FEET WITH NO
      SIGNIFICANT WEATHER AND/OR OBSTRUCTIONS TO VISIBILITY.
      SKY/WX - SKY CONDITION AND SIGNIFICANT WEATHER.
      TMP - AIR TEMPERATURE.    DP   - DEWPOINT TEMPERATURE.
      RH  - RELATIVE HUMIDITY.  PRES - PRESSURE.
      HX  - HEAT INDEX.         WCI  - WIND CHILL INDEX.

*  THESE STATIONS ARE NOT NWS OR FAA STATIONS AND ARE NOT UNDER
   NWS QUALITY CONTROL.

LAZ040-048-061>063-065-066-069-282300-
SOUTHEAST LOUISIANA

CITY           SKY/WX    TMP DP  RH WIND       PRES   REMARKS
N.O. AUDUBON     N/A     61  50  66 MISG        N/A
N.O. INTL ARPT SUNNY     60  45  57 E10       30.30S
N.O. LAKEFRONT SUNNY     60  46  59 E14       30.32S
SLIDELL        SUNNY     64  46  52 SE10      30.31R
BATON ROUGE    MOSUNNY   66  41  40 SE10      30.29R
BOOTHVILLE     CLOUDY    56  52  86 NE12      30.30F
BELLE CHASSE   MOSUNNY   62  47  57 E10       30.30S
BOGALUSA*        N/A     71  31  23 SE7       30.31S
GALLIANO*      CLEAR     62  50  65 NE9       30.30S
NEW ROADS*     NOT AVBL
GONZALES*      NOT AVBL
HAMMOND*       NOT AVBL
HOUMA*         NOT AVBL
PORT FOURCHON* MOCLDY    59  52  77 NE18G26   30.30F

$$

LAZ041-044-053-054-282300-
SOUTHWEST LOUISIANA

CITY           SKY/WX    TMP DP  RH WIND       PRES   REMARKS
LAKE CHARLES   PTSUNNY   62  46  55 E10       30.25F
LAFAYETTE      CLOUDY    66  43  43 VRB7      30.26F
PATTERSON      CLOUDY    66  46  48 E8        30.27F
SALT POINT       N/A     64  52  64 SE9       30.25S
NEW IBERIA     CLOUDY    66  44  45 E12       30.27S
CHENAULT AIRPK NOT AVBL

$$

LAZ027-028-282300-
CENTRAL LOUISIANA

CITY           SKY/WX    TMP DP  RH WIND       PRES   REMARKS
FORT POLK      NOT AVBL
ALEXANDRIA INT CLOUDY    58  36  43 NE5       30.28F
ALEXANDRIA     CLOUDY    60  36  40 N5        30.29F

$$

LAZ001-002-282300-
NORTHWEST LOUISIANA

CITY           SKY/WX    TMP DP  RH WIND       PRES   REMARKS
SHREVEPORT     CLOUDY    48  31  51 E6        30.31F
BARKSDALE AFB  NOT AVBL
DTN SHREVEPORT CLOUDY    46  28  49 SE6       30.32S

$$

LAZ014-016-282300-
NORTHEAST LOUISIANA

CITY           SKY/WX    TMP DP  RH WIND       PRES   REMARKS
MONROE         CLOUDY    50  35  56 NE9       30.35F
TALLULAH       CLOUDY    56  35  45 N9        30.33S

$$




USA.gov is the U.S. government's official web portal to all federal, state and local government web resources and services.